This demonstration page uses our WeatherBlox Daily Observations layout. Learn more.

Left ArrowRight Arrow

Hourly Observations for June 24, 2021

Temp ( °F °C ) Dew Point ( °F °C ) Humidity (%) Winds ( mph kmh ) Pressure ( in mb ) Visibility ( mi km ) Precip ( " mm )
12:53 am 00:53 Clear 75 23.9 52 11.1 45 45 N 5 7 29.88 1012 10 16 0.00 0.00
1:53 am 01:53 Clear 72 22.2 51 10.6 48 48 Calm 29.89 1012 10 16 0.00 0.00
2:53 am 02:53 Clear 69 20.6 51 10.6 53 53 NW 3 6 29.90 1012 10 16 0.00 0.00
3:53 am 03:53 Clear 68 20 51 10.6 55 55 NW 3 6 29.90 1013 10 16 0.00 0.00
4:53 am 04:53 Clear 68 20 51 10.6 55 55 N 3 6 29.91 1013 10 16 0.00 0.00
5:53 am 05:53 Sunny 66 18.9 51 10.6 59 59 Calm 29.92 1013 10 16 0.00 0.00
6:53 am 06:53 Sunny 67 19.4 51 10.6 57 57 Calm 29.93 1013 10 16 0.00 0.00
7:53 am 07:53 Sunny 74 23.3 51 10.6 45 45 Calm 29.92 1013 10 16 0.00 0.00
8:53 am 08:53 Sunny 77 25 51 10.6 40 40 Calm 29.92 1013 10 16 0.00 0.00
9:53 am 09:53 Sunny 83 28.3 51 10.6 33 33 NE 5 7 29.92 1013 10 16 0.00 0.00
10:53 am 10:53 Sunny 87 30.6 52 11.1 30 30 Calm 29.91 1013 10 16 0.00 0.00
11:53 am 11:53 Sunny 91 32.8 51 10.6 26 26 N 3 6 29.89 1012 10 16 0.00 0.00
12:53 pm 12:53 Sunny 93 33.9 49 9.4 22 22 VRB 3 6 29.88 1012 10 16 0.00 0.00
1:53 pm 13:53 Sunny 96 35.6 43 6.1 16 16 WSW 7 11 29.86 1011 10 16 0.00 0.00
2:53 pm 14:53 Sunny 98 36.7 44 6.7 16 16 S 8 13 29.84 1011 10 16 0.00 0.00
3:53 pm 15:53 Sunny 97 36.1 49 9.4 20 20 SSE 10 17 29.82 1010 10 16 0.00 0.00
4:53 pm 16:53 Sunny 98 36.7 49 9.4 19 19 S 13 20 29.81 1010 10 16 0.00 0.00
5:53 pm 17:53 Sunny 94 34.4 52 11.1 24 24 S 20 31 29.83 1010 10 16 0.00 0.00
6:53 pm 18:53 Sunny 87 30.6 54 12.2 32 32 S 21 33 29.85 1011 10 16 0.00 0.00
7:53 pm 19:53 Sunny 87 30.6 50 10 28 28 S 9 15 29.89 1012 10 16 0.00 0.00
8:53 pm 20:53 Clear 85 29.4 51 10.6 31 31 W 7 11 29.88 1012 10 16 0.00 0.00
9:53 pm 21:53 Clear 83 28.3 50 10 32 32 ESE 3 6 29.91 1013 10 16 0.00 0.00
10:53 pm 22:53 Clear 81 27.2 51 10.6 35 35 Calm 29.94 1014 10 16 0.00 0.00
11:53 pm 23:53 Clear 80 26.7 52 11.1 38 38 Calm 29.93 1014 10 16 0.00 0.00

Powered by AerisWeather